This demonstration page uses our WeatherBlox Daily Observations layout. Learn more.

Left ArrowRight Arrow

Hourly Observations for July 4, 2016

Temp ( °F °C ) Dew Point ( °F °C ) Humidity (%) Winds ( mph kmh ) Pressure ( in mb ) Visibility ( mi km ) Precip ( " mm )
12:15 am 00:15 Clear with Mist and Fog 63 17.1 61 16 93 93 SE 6 9 29.88 1012 5 8 N/A
12:35 am 00:35 Clear with Mist and Fog 63 17 61 16 94 94 SE 5 7 29.88 1012 4 6 N/A
12:55 am 00:55 Partly Cloudy with Mist and Fog 62 16.5 60 15.6 94 94 SSE 5 7 29.88 1012 3 5 N/A
1:15 am 01:15 Mostly Cloudy with Mist and Fog 62 16.9 61 16.1 95 95 SSE 6 9 29.91 1013 3 4 N/A
1:35 am 01:35 Cloudy with Mist and Fog 63 17 61 16.2 95 95 SSE 7 11 29.88 1012 3 5 N/A
1:55 am 01:55 Cloudy with Mist and Fog 63 17.3 62 16.5 95 95 S 8 13 29.88 1012 3 5 N/A
2:15 am 02:15 Cloudy with Mist and Fog 64 17.5 62 16.5 94 94 S 9 15 29.88 1012 3 5 N/A
2:35 am 02:35 Cloudy with Mist and Fog 64 17.5 62 16.6 95 95 S 8 13 29.85 1011 3 5 N/A
2:55 am 02:55 Cloudy with Mist and Fog 64 17.5 62 16.6 95 95 S 7 11 29.85 1011 2 3 N/A
3:15 am 03:15 Cloudy with Mist and Fog 64 17.5 62 16.6 95 95 S 10 17 29.85 1011 2 3 N/A
3:35 am 03:35 Cloudy with Mist and Fog 63 17.3 62 16.5 95 95 SSE 6 9 29.85 1011 2 3 N/A
3:55 am 03:55 Cloudy with Mist and Fog 63 17.3 62 16.5 95 95 SSW 7 11 29.85 1011 2 2 N/A
4:15 am 04:15 Cloudy with Mist and Fog 64 17.5 62 16.6 95 95 S 5 7 29.85 1011 1 2 N/A
4:35 am 04:35 Cloudy with Mist and Fog 64 17.5 62 16.7 95 95 S 6 9 29.85 1011 2 3 N/A
4:55 am 04:55 Cloudy with Mist and Fog 64 17.5 62 16.7 95 95 S 7 11 29.85 1011 3 4 N/A
5:15 am 05:15 Cloudy with Mist and Fog 64 17.6 62 16.8 95 95 SSE 3 6 29.85 1011 2 3 N/A
5:35 am 05:35 Cloudy with Mist and Fog 64 17.7 63 17 96 96 SSE 5 7 29.85 1011 2 3 N/A
5:55 am 05:55 Cloudy with Mist and Fog 64 17.7 63 17 96 96 SSE 8 13 29.83 1010 1 2 N/A
6:15 am 06:15 Cloudy with Mist and Fog 64 18 63 17.1 95 95 S 5 7 29.85 1011 2 2 N/A
6:35 am 06:35 Cloudy with Mist and Fog 64 18 63 17.2 95 95 S 5 7 29.85 1011 1 1 N/A
6:55 am 06:55 Cloudy with Drizzle 64 18 63 17.2 95 95 S 6 9 29.85 1011 1 2 N/A
7:15 am 07:15 Cloudy with Mist and Fog 65 18.1 63 17.3 95 95 S 3 6 29.85 1011 1 2 N/A
7:35 am 07:35 Cloudy with Mist and Fog 65 18.2 64 17.5 96 96 S 5 7 29.85 1011 1 2 N/A
7:55 am 07:55 Cloudy with Mist and Fog 65 18.5 64 17.6 95 95 SSE 5 7 29.85 1011 1 2 N/A
8:15 am 08:15 Cloudy with Mist and Fog 65 18.5 64 17.7 95 95 SE 5 7 29.85 1011 1 2 N/A
8:35 am 08:35 Cloudy with Mist and Fog 66 18.7 64 18 96 96 SSE 7 11 29.85 1011 2 2 N/A
8:55 am 08:55 Cloudy with Mist and Fog 66 18.8 64 18 95 95 S 8 13 29.85 1011 3 4 N/A
9:15 am 09:15 Cloudy with Mist and Fog 66 19 65 18.1 95 95 S 7 11 29.83 1010 3 5 N/A
9:35 am 09:35 Cloudy with Mist and Fog 67 19.2 65 18.2 94 94 S 8 13 29.83 1010 3 5 N/A
9:55 am 09:55 Cloudy with Mist and Fog 67 19.5 65 18.2 92 92 SSW 8 13 29.83 1010 4 6 N/A
10:15 am 10:15 Cloudy with Mist and Fog 67 19.5 65 18.2 92 92 S 8 13 29.83 1010 5 8 N/A
10:35 am 10:35 Cloudy with Mist and Fog 68 19.8 65 18.5 92 92 SW 8 13 29.83 1010 5 8 N/A
10:55 am 10:55 Cloudy 68 20.2 65 18.5 90 90 SW 8 13 29.83 1010 10 16 N/A
11:15 am 11:15 Cloudy 69 20.6 65 18.5 88 88 SSW 10 17 29.83 1010 10 16 N/A
11:35 am 11:35 Cloudy 70 21 65 18.5 86 86 SSW 9 15 29.83 1010 10 16 N/A
11:55 am 11:55 Cloudy 71 21.6 66 18.7 84 84 S 9 15 29.83 1010 10 16 N/A
12:15 pm 12:15 Cloudy 72 22 66 18.8 82 82 SSW 9 15 29.83 1010 10 16 N/A
12:35 pm 12:35 Cloudy 72 22.4 66 18.8 80 80 SW 8 13 29.83 1010 10 16 N/A
12:55 pm 12:55 Cloudy 74 23.2 67 19.3 79 79 SSW 6 9 29.80 1009 10 16 N/A
1:15 pm 13:15 Mostly Cloudy 76 24.2 68 19.8 77 77 SW 6 9 29.80 1009 10 16 N/A
1:35 pm 13:35 Partly Cloudy 76 24.6 68 19.9 75 75 SSW 8 13 29.77 1008 10 16 N/A
1:55 pm 13:55 Partly Cloudy 77 24.8 67 19.6 73 73 S 6 9 29.77 1008 10 16 N/A
2:15 pm 14:15 Mostly Cloudy 78 25.8 68 20 70 70 SW 7 11 29.74 1007 10 16 N/A
2:35 pm 14:35 Partly Cloudy 79 26.2 69 20.3 70 70 SSW 5 7 29.74 1007 10 16 N/A
2:55 pm 14:55 Partly Cloudy 80 26.9 69 20.8 69 69 SSW 5 7 29.74 1007 10 16 N/A
3:15 pm 15:15 Partly Cloudy 82 27.6 69 20.6 66 66 SSE 3 6 29.74 1007 10 16 N/A
3:35 pm 15:35 Sunny 82 28 70 21.3 67 67 S 5 7 29.74 1007 10 16 N/A
3:55 pm 15:55 Sunny 83 28.2 71 21.6 67 67 SSE 7 11 29.74 1007 10 16 N/A
4:15 pm 16:15 Sunny 83 28.4 70 21.2 65 65 SSE 6 9 29.74 1007 10 16 N/A
4:35 pm 16:35 Sunny 84 28.7 70 20.9 63 63 SE 5 7 29.74 1007 10 16 N/A
4:55 pm 16:55 Sunny 84 28.9 71 21.4 64 64 SE 7 11 29.74 1007 10 16 N/A
5:15 pm 17:15 Sunny 84 29.1 71 21.5 64 64 SSE 6 9 29.74 1007 10 16 N/A
5:35 pm 17:35 Sunny 84 29.1 70 21.3 63 63 SE 5 7 29.68 1005 10 16 N/A
5:55 pm 17:55 Sunny 85 29.5 71 21.8 63 63 SSE 6 9 29.68 1005 10 16 N/A
6:15 pm 18:15 Sunny 85 29.5 71 21.5 62 62 SSE 5 7 29.68 1005 10 16 N/A
6:35 pm 18:35 Sunny 85 29.2 71 21.8 64 64 SSE 7 11 29.68 1005 10 16 N/A
6:55 pm 18:55 Sunny 84 29 71 21.8 65 65 SE 7 11 29.65 1004 10 16 N/A
7:15 pm 19:15 Sunny 83 28.5 71 21.9 67 67 SSE 8 13 29.71 1006 10 16 N/A
7:35 pm 19:35 Sunny 83 28.2 71 21.7 68 68 SE 7 11 29.71 1006 10 16 N/A
7:55 pm 19:55 Sunny 81 27.4 71 21.7 71 71 SSE 8 13 29.68 1005 10 16 N/A
8:15 pm 20:15 Sunny 81 27 71 21.6 72 72 SSE 7 11 29.71 1006 10 16 N/A
8:35 pm 20:35 Sunny 80 26.6 71 21.6 74 74 SE 7 11 29.68 1005 10 16 N/A
8:55 pm 20:55 Sunny 78 25.8 71 21.6 78 78 SE 6 9 29.68 1005 10 16 N/A
9:15 pm 21:15 Clear 77 24.9 70 21.3 80 80 SE 6 9 29.71 1006 10 16 N/A
9:35 pm 21:35 Clear 76 24.2 70 21.2 83 83 SE 6 9 29.71 1006 10 16 N/A
9:55 pm 21:55 Clear 75 24 70 21.2 84 84 SE 5 7 29.71 1006 7 11 N/A
10:15 pm 22:15 Clear with Mist and Fog 74 23.3 70 21 87 87 SE 3 6 29.74 1007 5 8 N/A
10:35 pm 22:35 Clear with Mist and Fog 74 23.2 70 21 87 87 SE 6 9 29.74 1007 4 6 N/A
10:55 pm 22:55 Hazy 74 23.4 69 20.7 85 85 SE 5 7 29.74 1007 4 6 N/A
11:15 pm 23:15 Clear with Mist and Fog 72 22.3 69 20.5 90 90 SE 3 6 29.74 1007 4 6 N/A
11:35 pm 23:35 Clear with Mist and Fog 72 22.4 68 20.2 87 87 SE 5 7 29.74 1007 5 8 N/A
11:55 pm 23:55 Clear with Mist and Fog 72 22 68 19.9 88 88 SSE 6 9 29.74 1007 5 8 N/A

Powered by AerisWeather